Check out our new BloomSky Weather System.

Active alerts


No alerts


Thunder radar  blitzortung!


Rain radar more information rain snow radar


Visit our other weather sites:

Template documentation
and downloads

And another site



Weather Underground History page Text

Daily Summary for December 7, 2017 Units:  Metric    English   Both
« Previous Day
Next Day »
Daily Weekly Monthly Yearly Custom
  High: Low: Average:
Temperature: 7.4 °C 0 °C 5.3 °C
Dew Point: 6.5 °C -0.5 °C 4.2 °C
Humidity: 97 % 75 % 92 %
Wind Speed: 29 km/h 0 km/h 3.5 km/h
Wind Gust: 29 km/h - -
Wind:- - West
Pressure: 1027.3 hPa 1023.9 hPa -
Precipitation: 12.45 mm    
Historical Graphs
 
 
Tabular Data for December 7, 2017
Time Temperature Dew Point Pressure Wind Wind Speed Wind Gust Humidity Rainfall Rate (Hourly)
00:03 5.6 °C 4.9 °C 1026.6 hPa NW 1.6 km/h 8 km/h 95 % 0.25 mm
00:08 5.6 °C 4.9 °C 1026.6 hPa North 1.6 km/h 8 km/h 95 % 0.25 mm
00:13 5.6 °C 4.7 °C 1026.6 hPa NW 1.6 km/h 8 km/h 94 % 0.25 mm
00:18 5.6 °C 4.9 °C 1026.6 hPa WNW 3.2 km/h 9.7 km/h 95 % 0.25 mm
00:23 5.6 °C 4.7 °C 1026.6 hPa North 4.8 km/h 9.7 km/h 94 % 0.25 mm
00:28 5.6 °C 4.9 °C 1026.6 hPa NNW 3.2 km/h 9.7 km/h 95 % 0.25 mm
00:33 5.5 °C 4.6 °C 1026.6 hPa NNW 1.6 km/h 9.7 km/h 94 % 0.25 mm
00:38 5.5 °C 4.6 °C 1026.3 hPa West 1.6 km/h 9.7 km/h 94 % 0.25 mm
00:43 5.5 °C 4.6 °C 1026.3 hPa North 3.2 km/h 6.4 km/h 94 % 0.25 mm
00:49 5.5 °C 4.6 °C 1026.3 hPa NNW 1.6 km/h 6.4 km/h 94 % 0.25 mm
00:54 5.4 °C 4.5 °C 1026.6 hPa NW 3.2 km/h 8 km/h 94 % 0.25 mm
00:59 5.4 °C 4.5 °C 1026.6 hPa NW 3.2 km/h 8 km/h 94 % 0.25 mm
01:04 5.4 °C 4.5 °C 1026.6 hPa NNW 3.2 km/h 8 km/h 94 % 0 mm
01:09 5.4 °C 4.5 °C 1026.6 hPa NNW 1.6 km/h 8 km/h 94 % 0 mm
01:14 5.4 °C 4.5 °C 1026.6 hPa Calm   6.4 km/h 94 % 0 mm
01:19 5.4 °C 4.5 °C 1026.6 hPa WNW 1.6 km/h 6.4 km/h 94 % 0 mm
01:24 5.4 °C 4.5 °C 1026.3 hPa NNW 1.6 km/h 6.4 km/h 94 % 0 mm
01:29 5.4 °C 4.5 °C 1026 hPa ENE 3.2 km/h 6.4 km/h 94 % 0 mm
01:34 5.3 °C 4.4 °C 1026 hPa NNW 1.6 km/h 6.4 km/h 94 % 0 mm
01:36 5.3 °C 4.4 °C 1026 hPa NNW 6.4 km/h 6.4 km/h 94 % 0 mm
01:41 5.3 °C 4.4 °C 1026 hPa NNW 1.6 km/h 9.7 km/h 94 % 0.25 mm
01:46 5.3 °C 4.4 °C 1026 hPa NNE 4.8 km/h 9.7 km/h 94 % 0.25 mm
01:51 5.3 °C 4.6 °C 1026 hPa NNW 4.8 km/h 9.7 km/h 95 % 0.25 mm
01:56 5.3 °C 4.6 °C 1026 hPa NNW 3.2 km/h 9.7 km/h 95 % 0.25 mm
02:01 5.3 °C 4.4 °C 1026 hPa NW 1.6 km/h 9.7 km/h 94 % 0.25 mm
02:06 5.2 °C 4.3 °C 1026 hPa NW 6.4 km/h 8 km/h 94 % 0.25 mm
02:11 5.2 °C 4.3 °C 1026 hPa NW 4.8 km/h 9.7 km/h 94 % 0.25 mm
02:16 5.2 °C 4.2 °C 1026 hPa WNW 3.2 km/h 9.7 km/h 93 % 0.25 mm
02:21 5.2 °C 4.2 °C 1026 hPa Calm   9.7 km/h 93 % 0.25 mm
02:26 5.2 °C 4.2 °C 1025.6 hPa NW 1.6 km/h 9.7 km/h 93 % 0.25 mm
02:31 5.2 °C 4.2 °C 1025.6 hPa North 4.8 km/h 9.7 km/h 93 % 0.25 mm
02:36 5.3 °C 4.3 °C 1025.6 hPa NW 1.6 km/h 9.7 km/h 93 % 0.25 mm
02:41 5.3 °C 4.4 °C 1025.6 hPa NE 3.2 km/h 8 km/h 94 % 0 mm
02:46 5.3 °C 4.4 °C 1025.6 hPa NNW 3.2 km/h 12.9 km/h 94 % 0 mm
02:51 5.3 °C 4.4 °C 1025.6 hPa North 3.2 km/h 12.9 km/h 94 % 0 mm
02:56 5.4 °C 4.5 °C 1025.3 hPa NNW 3.2 km/h 12.9 km/h 94 % 0.25 mm
03:01 5.4 °C 4.5 °C 1025.6 hPa North 3.2 km/h 8 km/h 94 % 0.25 mm
03:06 5.4 °C 4.5 °C 1025.6 hPa NW 1.6 km/h 6.4 km/h 94 % 0.25 mm
03:12 5.4 °C 4.5 °C 1026 hPa Calm   6.4 km/h 94 % 0.25 mm
03:14 5.4 °C 4.5 °C 1026 hPa Calm   6.4 km/h 94 % 0.25 mm
03:19 5.4 °C 4.5 °C 1026 hPa Calm   6.4 km/h 94 % 0.51 mm
03:24 5.5 °C 4.6 °C 1026 hPa NNW 3.2 km/h 4.8 km/h 94 % 0.51 mm
03:29 5.5 °C 4.6 °C 1026 hPa NW 1.6 km/h 4.8 km/h 94 % 0.51 mm
03:34 5.5 °C 4.6 °C 1026 hPa NNW 1.6 km/h 4.8 km/h 94 % 0.51 mm
03:39 5.6 °C 4.7 °C 1026 hPa North 3.2 km/h 6.4 km/h 94 % 0.76 mm
03:44 5.5 °C 4.5 °C 1026 hPa Calm   6.4 km/h 93 % 0.76 mm
03:49 5.5 °C 4.5 °C 1026 hPa NNW 1.6 km/h 9.7 km/h 93 % 0.76 mm
03:54 5.5 °C 4.5 °C 1026 hPa NW 3.2 km/h 9.7 km/h 93 % 0.51 mm
03:59 5.5 °C 4.5 °C 1026 hPa North 6.4 km/h 9.7 km/h 93 % 0.51 mm
04:04 5.5 °C 4.5 °C 1026 hPa NW 3.2 km/h 8 km/h 93 % 0.51 mm
04:09 5.5 °C 4.5 °C 1026 hPa Calm   8 km/h 93 % 0.51 mm
04:14 5.5 °C 4.5 °C 1025.6 hPa NNW 3.2 km/h 8 km/h 93 % 0.76 mm
04:19 5.5 °C 4.5 °C 1025.6 hPa Calm   4.8 km/h 93 % 0.51 mm
04:24 5.5 °C 4.6 °C 1025.6 hPa Calm   4.8 km/h 94 % 0.51 mm
04:29 5.5 °C 4.5 °C 1025.6 hPa Calm   4.8 km/h 93 % 0.76 mm
04:34 5.5 °C 4.5 °C 1025.6 hPa Calm   6.4 km/h 93 % 0.76 mm
04:39 5.5 °C 4.5 °C 1025.6 hPa Calm   6.4 km/h 93 % 0.76 mm
04:44 5.4 °C 4.4 °C 1025.6 hPa Calm   6.4 km/h 93 % 1.02 mm
04:49 5.4 °C 4.4 °C 1025.6 hPa Calm   6.4 km/h 93 % 1.02 mm
04:54 5.4 °C 4.5 °C 1025.6 hPa NNW 3.2 km/h 4.8 km/h 94 % 1.27 mm
05:04 5.4 °C 4.5 °C 1026 hPa NNW 3.2 km/h 4.8 km/h 94 % 1.52 mm
05:10 5.4 °C 4.5 °C 1025.6 hPa NNW 1.6 km/h 4.8 km/h 94 % 1.78 mm
05:15 5.4 °C 4.5 °C 1026 hPa NNW 1.6 km/h 4.8 km/h 94 % 1.78 mm
05:20 5.4 °C 4.7 °C 1026 hPa NNW 3.2 km/h 8 km/h 95 % 1.78 mm
05:25 5.4 °C 4.7 °C 1026 hPa NNW 1.6 km/h 8 km/h 95 % 1.78 mm
05:30 5.5 °C 4.8 °C 1026 hPa Calm   8 km/h 95 % 1.78 mm
05:35 5.6 °C 4.9 °C 1026 hPa Calm   8 km/h 95 % 1.78 mm
05:40 5.6 °C 4.9 °C 1026 hPa North 1.6 km/h 8 km/h 95 % 1.52 mm
05:45 5.7 °C 5 °C 1026 hPa NW 1.6 km/h 8 km/h 95 % 1.78 mm
05:50 5.8 °C 5.1 °C 1026 hPa Calm   8 km/h 95 % 1.52 mm
05:55 5.8 °C 4.9 °C 1025.6 hPa NNE 1.6 km/h 8 km/h 94 % 1.27 mm
06:00 5.8 °C 4.9 °C 1026 hPa Calm   8 km/h 94 % 1.52 mm
06:05 5.8 °C 4.9 °C 1025.6 hPa Calm   8 km/h 94 % 1.27 mm
06:10 5.9 °C 5 °C 1025.6 hPa Calm   8 km/h 94 % 1.27 mm
06:15 5.9 °C 5 °C 1025.6 hPa Calm   6.4 km/h 94 % 1.02 mm
06:20 5.9 °C 5 °C 1026 hPa Calm   6.4 km/h 94 % 1.27 mm
06:26 6 °C 5.1 °C 1026 hPa Calm   4.8 km/h 94 % 1.02 mm
06:31 6 °C 5.3 °C 1026 hPa Calm   4.8 km/h 95 % 1.02 mm
06:36 6.1 °C 5.4 °C 1026 hPa Calm   4.8 km/h 95 % 0.76 mm
06:41 6.1 °C 5.4 °C 1026 hPa Calm   1.6 km/h 95 % 0.76 mm
06:46 6.1 °C 5.4 °C 1026 hPa North 3.2 km/h 9.7 km/h 95 % 0.51 mm
06:51 6.2 °C 5.5 °C 1026 hPa NNW 3.2 km/h 12.9 km/h 95 % 0.51 mm
06:52 6.2 °C 5.3 °C 1026 hPa North 3.2 km/h 12.9 km/h 94 % 0.51 mm
07:02 6.5 °C 5.3 °C 1026 hPa NE 1.6 km/h 12.9 km/h 92 % 0.25 mm
07:07 6.5 °C 5.3 °C 1026 hPa Calm   12.9 km/h 92 % 0.25 mm
07:12 6.4 °C 5.4 °C 1026 hPa Calm   6.4 km/h 93 % 0.25 mm
07:17 6.4 °C 5.4 °C 1026 hPa NW 3.2 km/h 4.8 km/h 93 % 0.51 mm
07:22 6.4 °C 5.4 °C 1026 hPa NNW 1.6 km/h 14.5 km/h 93 % 0.25 mm
07:27 6.4 °C 5.4 °C 1026 hPa Calm   14.5 km/h 93 % 0.25 mm
07:32 6.4 °C 5.4 °C 1026 hPa NW 1.6 km/h 14.5 km/h 93 % 0.25 mm
07:37 6.4 °C 5.4 °C 1026 hPa Calm   6.4 km/h 93 % 0.25 mm
07:42 6.5 °C 5.6 °C 1026 hPa NNE 8 km/h 8 km/h 94 % 0.25 mm
07:47 6.4 °C 5.4 °C 1026 hPa Calm   8 km/h 93 % 0.25 mm
07:52 6.5 °C 5.3 °C 1026 hPa NNW 1.6 km/h 12.9 km/h 92 % 0.25 mm
07:57 6.5 °C 5.3 °C 1026 hPa NNE 1.6 km/h 12.9 km/h 92 % 0.51 mm
08:02 6.5 °C 5.3 °C 1026 hPa North 3.2 km/h 12.9 km/h 92 % 0.51 mm
08:07 6.4 °C 5.2 °C 1025.6 hPa ENE 4.8 km/h 14.5 km/h 92 % 0.51 mm
08:17 6.4 °C 5 °C 1025.6 hPa NNW 3.2 km/h 14.5 km/h 91 % 0.51 mm
08:22 6.4 °C 5 °C 1026 hPa NE 3.2 km/h 8 km/h 91 % 0.51 mm
08:33 6.4 °C 5 °C 1026 hPa Calm   9.7 km/h 91 % 0.51 mm
08:38 6.4 °C 5 °C 1026.3 hPa Calm   9.7 km/h 91 % 0.76 mm
08:48 6.5 °C 5.1 °C 1026.6 hPa ESE 3.2 km/h 4.8 km/h 91 % 0.76 mm
08:53 6.6 °C 5.2 °C 1026.6 hPa Calm   6.4 km/h 91 % 0.76 mm
08:58 6.6 °C 5.2 °C 1026.6 hPa ESE 6.4 km/h 6.4 km/h 91 % 0.76 mm
09:04 6.7 °C 5.3 °C 1026.6 hPa Calm   8 km/h 91 % 0.76 mm
09:10 6.7 °C 5.3 °C 1026.6 hPa North 1.6 km/h 9.7 km/h 91 % 1.02 mm
09:15 6.7 °C 5.3 °C 1026.6 hPa Calm   9.7 km/h 91 % 1.02 mm
09:20 6.7 °C 5.3 °C 1026.6 hPa Calm   9.7 km/h 91 % 1.02 mm
09:30 6.8 °C 5.4 °C 1026.3 hPa Calm   4.8 km/h 91 % 1.02 mm
09:35 6.8 °C 5.4 °C 1026.3 hPa Calm   4.8 km/h 91 % 1.27 mm
09:45 6.8 °C 5.4 °C 1026 hPa Calm   8 km/h 91 % 1.02 mm
09:50 6.9 °C 5.5 °C 1026 hPa Calm   9.7 km/h 91 % 1.02 mm
09:55 6.8 °C 5.4 °C 1026 hPa Calm   9.7 km/h 91 % 1.02 mm
10:00 6.8 °C 5.4 °C 1026 hPa Calm   9.7 km/h 91 % 1.02 mm
10:05 6.9 °C 5.5 °C 1026 hPa Calm   6.4 km/h 91 % 0.76 mm
10:10 6.9 °C 5.5 °C 1026 hPa Calm   6.4 km/h 91 % 0.76 mm
10:15 6.9 °C 5.7 °C 1026 hPa Calm   3.2 km/h 92 % 0.76 mm
10:20 6.9 °C 5.7 °C 1026 hPa Calm   3.2 km/h 92 % 0.76 mm
10:25 7 °C 5.8 °C 1026 hPa Calm   3.2 km/h 92 % 0.76 mm
10:30 7.1 °C 6 °C 1026 hPa Calm   3.2 km/h 93 % 0.51 mm
10:35 7.1 °C 6 °C 1026 hPa Calm   1.6 km/h 93 % 0.51 mm
10:40 7.2 °C 6.1 °C 1026 hPa Calm   1.6 km/h 93 % 0.76 mm
10:55 7.3 °C 6.4 °C 1026 hPa Calm   3.2 km/h 94 % 0.51 mm
11:00 7.3 °C 6.4 °C 1026.3 hPa Calm   3.2 km/h 94 % 0.51 mm
11:05 7.3 °C 6.4 °C 1026.3 hPa NNW 3.2 km/h 3.2 km/h 94 % 0.51 mm
11:10 7.3 °C 6.4 °C 1026.3 hPa NNW 1.6 km/h 3.2 km/h 94 % 0.76 mm
11:15 7.3 °C 6.2 °C 1026.6 hPa Calm   3.2 km/h 93 % 0.51 mm
11:20 7.3 °C 5.9 °C 1026.6 hPa NNE 6.4 km/h 12.9 km/h 91 % 0.51 mm
11:30 7.4 °C 6 °C 1026.6 hPa West 4.8 km/h 12.9 km/h 91 % 0.76 mm
11:35 7.3 °C 5.4 °C 1026.6 hPa NNE 8 km/h 17.7 km/h 88 % 0.76 mm
11:45 7.2 °C 5 °C 1026.6 hPa WNW 1.6 km/h 27.4 km/h 86 % 0.76 mm
12:00 7.1 °C 5.2 °C 1026.3 hPa North 8 km/h 20.9 km/h 88 % 1.27 mm
12:05 7 °C 5.5 °C 1026 hPa Calm   16.1 km/h 90 % 1.52 mm
12:10 7 °C 5.5 °C 1026 hPa North 4.8 km/h 16.1 km/h 90 % 1.27 mm
12:16 7 °C 5.5 °C 1026 hPa North 6.4 km/h 14.5 km/h 90 % 1.52 mm
12:21 7 °C 5.5 °C 1026 hPa NW 1.6 km/h 14.5 km/h 90 % 1.52 mm
12:26 6.9 °C 5.5 °C 1025.6 hPa NNW 1.6 km/h 14.5 km/h 91 % 1.52 mm
12:31 6.9 °C 5.5 °C 1025.6 hPa NW 6.4 km/h 14.5 km/h 91 % 1.52 mm
12:36 6.9 °C 5.5 °C 1025.6 hPa NNE 4.8 km/h 14.5 km/h 91 % 1.78 mm
12:41 6.8 °C 5.4 °C 1025.6 hPa NW 1.6 km/h 14.5 km/h 91 % 1.52 mm
12:46 6.8 °C 5.6 °C 1025.6 hPa NW 3.2 km/h 12.9 km/h 92 % 1.78 mm
12:51 6.8 °C 5.6 °C 1025.6 hPa East 1.6 km/h 12.9 km/h 92 % 1.52 mm
12:56 6.8 °C 5.7 °C 1025.6 hPa NW 3.2 km/h 12.9 km/h 93 % 1.52 mm
13:06 6.9 °C 5.8 °C 1025.6 hPa North 6.4 km/h 8 km/h 93 % 1.52 mm
13:16 6.9 °C 5.8 °C 1025.6 hPa NNW 8 km/h 8 km/h 93 % 1.27 mm
13:21 7 °C 5.9 °C 1025.3 hPa Calm   12.9 km/h 93 % 1.52 mm
13:26 7 °C 5.9 °C 1025.3 hPa Calm   12.9 km/h 93 % 1.27 mm
13:36 6.9 °C 5.8 °C 1024.9 hPa NNW 3.2 km/h 9.7 km/h 93 % 1.02 mm
13:41 6.9 °C 6 °C 1024.9 hPa Calm   9.7 km/h 94 % 1.27 mm
13:51 7.1 °C 6.2 °C 1024.9 hPa Calm   4.8 km/h 94 % 1.02 mm
13:56 7.1 °C 6.2 °C 1024.9 hPa Calm   3.2 km/h 94 % 0.76 mm
14:01 7.1 °C 6.2 °C 1024.9 hPa NNW 1.6 km/h 3.2 km/h 94 % 1.02 mm
14:11 7.1 °C 6.4 °C 1024.9 hPa Calm   3.2 km/h 95 % 0.76 mm
14:26 7.2 °C 6.5 °C 1024.6 hPa NW 3.2 km/h 6.4 km/h 95 % 0.76 mm
14:31 7.2 °C 6.3 °C 1024.6 hPa NNE 8 km/h 12.9 km/h 94 % 0.76 mm
14:36 7.1 °C 6 °C 1024.6 hPa NNE 11.3 km/h 12.9 km/h 93 % 0.76 mm
14:41 6.9 °C 5.1 °C 1024.3 hPa NE 4.8 km/h 25.7 km/h 88 % 0.51 mm
14:46 6.8 °C 4.8 °C 1024.3 hPa NNW 8 km/h 25.7 km/h 87 % 0.51 mm
15:01 6.6 °C 4.4 °C 1024.3 hPa NNE 4.8 km/h 17.7 km/h 86 % 0.25 mm
15:11 6.4 °C 4.4 °C 1024.3 hPa NW 6.4 km/h 17.7 km/h 87 % 0.25 mm
15:16 6.3 °C 4.5 °C 1024.3 hPa NW 3.2 km/h 14.5 km/h 88 % 0.25 mm
15:26 6.3 °C 4.6 °C 1024.3 hPa North 1.6 km/h 11.3 km/h 89 % 0.25 mm
15:42 6.4 °C 4.9 °C 1024.3 hPa NW 1.6 km/h 6.4 km/h 90 % 0.51 mm
15:53 6.3 °C 4.6 °C 1024.6 hPa NW 3.2 km/h 14.5 km/h 89 % 0.51 mm
16:08 6.3 °C 4.8 °C 1024.3 hPa NNW 4.8 km/h 11.3 km/h 90 % 0.25 mm
16:13 6.2 °C 4.7 °C 1024.3 hPa NNW 8 km/h 8 km/h 90 % 0.25 mm
16:18 6.2 °C 4.7 °C 1024.3 hPa NNW 4.8 km/h 16.1 km/h 90 % 0.25 mm
16:23 6.2 °C 4.7 °C 1024.6 hPa NNW 1.6 km/h 16.1 km/h 90 % 0.25 mm
16:28 6.2 °C 4.7 °C 1024.6 hPa NNW 1.6 km/h 16.1 km/h 90 % 0.25 mm
16:38 6.2 °C 4.5 °C 1024.6 hPa North 6.4 km/h 12.9 km/h 89 % 0.25 mm
16:43 6.2 °C 4.7 °C 1024.9 hPa NNW 6.4 km/h 14.5 km/h 90 % 0.25 mm
16:48 6.2 °C 4.7 °C 1024.6 hPa NNE 8 km/h 14.5 km/h 90 % 0.25 mm
16:53 6.1 °C 4.6 °C 1024.9 hPa NW 3.2 km/h 14.5 km/h 90 % 0.25 mm
16:58 6.1 °C 4.6 °C 1024.9 hPa North 1.6 km/h 11.3 km/h 90 % 0.25 mm
17:08 6 °C 4.6 °C 1023.9 hPa Calm   11.3 km/h 91 % 0.25 mm
17:13 5.9 °C 4.5 °C 1024.3 hPa Calm   9.7 km/h 91 % 0.25 mm
17:18 5.9 °C 4.7 °C 1024.3 hPa Calm   4.8 km/h 92 % 0.25 mm
17:23 5.9 °C 4.7 °C 1024.3 hPa Calm   4.8 km/h 92 % 0.25 mm
17:33 5.9 °C 4.9 °C 1024.3 hPa Calm   4.8 km/h 93 % 0 mm
17:38 5.9 °C 4.9 °C 1024.3 hPa Calm   4.8 km/h 93 % 0 mm
17:53 5.9 °C 4.9 °C 1024.6 hPa North 4.8 km/h 4.8 km/h 93 % 0 mm
17:58 6 °C 5 °C 1024.6 hPa Calm   4.8 km/h 93 % 0 mm
18:00 6 °C 5 °C 1024.6 hPa North 3.2 km/h 4.8 km/h 93 % 0 mm
18:10 6 °C 4.6 °C 1024.9 hPa WNW 1.6 km/h 8 km/h 91 % 0 mm
18:15 5.9 °C 4.2 °C 1024.9 hPa NW 3.2 km/h 9.7 km/h 89 % 0 mm
18:20 5.9 °C 3.7 °C 1024.9 hPa NNW 6.4 km/h 9.7 km/h 86 % 0 mm
18:25 5.8 °C 3.5 °C 1024.9 hPa NNW 3.2 km/h 9.7 km/h 85 % 0 mm
18:30 5.8 °C 3.5 °C 1024.9 hPa NW 3.2 km/h 9.7 km/h 85 % 0 mm
18:35 5.8 °C 3.1 °C 1024.9 hPa NW 6.4 km/h 17.7 km/h 83 % 0 mm
18:41 5.7 °C 2.7 °C 1025.3 hPa WNW 8 km/h 19.3 km/h 81 % 0 mm
18:46 5.7 °C 2.9 °C 1025.3 hPa NNW 3.2 km/h 19.3 km/h 82 % 0 mm
18:51 5.7 °C 3 °C 1025.3 hPa NNW 4.8 km/h 19.3 km/h 83 % 0 mm
18:56 5.6 °C 3.1 °C 1025.3 hPa NNW 3.2 km/h 12.9 km/h 84 % 0 mm
19:01 5.6 °C 3.1 °C 1025.3 hPa NNW 4.8 km/h 11.3 km/h 84 % 0 mm
19:06 5.4 °C 2.9 °C 1025.6 hPa NW 4.8 km/h 11.3 km/h 84 % 0 mm
19:16 5.3 °C 1.4 °C 1025.6 hPa NW 29 km/h 29 km/h 76 % 0 mm
19:22 5.2 °C 1.1 °C 1026 hPa NNW 12.9 km/h 29 km/h 75 % 0 mm
19:27 5.1 °C 1 °C 1025.6 hPa NNW 9.7 km/h 29 km/h 75 % 0 mm
19:32 4.9 °C 0.8 °C 1026 hPa North 12.9 km/h 29 km/h 75 % 0 mm
19:42 4.8 °C 0.9 °C 1025.6 hPa NW 8 km/h 24.1 km/h 76 % 0 mm
19:47 4.8 °C 0.9 °C 1025.6 hPa NW 11.3 km/h 22.5 km/h 76 % 0 mm
19:57 4.5 °C 1.2 °C 1026 hPa North 14.5 km/h 16.1 km/h 79 % 0 mm
20:02 4.3 °C 1.3 °C 1026 hPa North 8 km/h 17.7 km/h 81 % 0 mm
20:07 4.1 °C 1.5 °C 1026 hPa NNW 3.2 km/h 17.7 km/h 83 % 0 mm
20:12 3.7 °C 1.6 °C 1026.3 hPa NW 8 km/h 20.9 km/h 86 % 0 mm
20:17 3.4 °C 1.6 °C 1026 hPa NW 12.9 km/h 25.7 km/h 88 % 0 mm
20:22 3.2 °C 1.6 °C 1026.3 hPa NW 9.7 km/h 25.7 km/h 89 % 0 mm
20:27 3.1 °C 1.6 °C 1026.3 hPa North 11.3 km/h 25.7 km/h 90 % 0 mm
20:32 2.9 °C 1.6 °C 1026 hPa NW 19.3 km/h 24.1 km/h 91 % 0 mm
20:39 2.8 °C 1.6 °C 1026 hPa North 3.2 km/h 20.9 km/h 92 % 0 mm
20:54 2.5 °C 1.6 °C 1026 hPa NW 4.8 km/h 20.9 km/h 94 % 0.25 mm
20:59 2.5 °C 1.6 °C 1026 hPa Calm   20.9 km/h 94 % 0.25 mm
21:04 2.4 °C 1.5 °C 1026 hPa East 6.4 km/h 16.1 km/h 94 % 0.25 mm
21:09 2.2 °C 1.3 °C 1026 hPa WNW 8 km/h 17.7 km/h 94 % 0.25 mm
21:15 2 °C 1.1 °C 1026 hPa NW 6.4 km/h 19.3 km/h 94 % 0.25 mm
21:23 1.8 °C 1.1 °C 1026.3 hPa NW 6.4 km/h 27.4 km/h 95 % 0.25 mm
21:32 1.8 °C 1.1 °C 1026.3 hPa NNW 6.4 km/h 27.4 km/h 95 % 0.25 mm
21:34 1.8 °C 1.1 °C 1026.3 hPa NW 3.2 km/h 27.4 km/h 95 % 0.25 mm
21:37 1.7 °C 1 °C 1026.6 hPa WNW 3.2 km/h 20.9 km/h 95 % 0.51 mm
21:40 1.7 °C 1 °C 1026.6 hPa NW 4.8 km/h 16.1 km/h 95 % 0.51 mm
21:47 1.6 °C 0.9 °C 1026.6 hPa NNW 8 km/h 19.3 km/h 95 % 0.51 mm
21:55 1.4 °C 0.7 °C 1027 hPa NNE 8 km/h 20.9 km/h 95 % 0.25 mm
22:00 1.4 °C 0.7 °C 1027.3 hPa WNW 6.4 km/h 20.9 km/h 95 % 0.25 mm
22:05 1.4 °C 0.8 °C 1027.3 hPa NNW 9.7 km/h 20.9 km/h 96 % 0.25 mm
22:15 1.2 °C 0.5 °C 1027 hPa NNW 16.1 km/h 24.1 km/h 95 % 0.25 mm
22:20 1.2 °C 0.5 °C 1026.6 hPa NNW 4.8 km/h 24.1 km/h 95 % 0.25 mm
22:25 1.1 °C 0.4 °C 1026.6 hPa NW 3.2 km/h 24.1 km/h 95 % 0.25 mm
22:35 0.9 °C 0.2 °C 1026.6 hPa NNW 4.8 km/h 19.3 km/h 95 % 0 mm
22:40 0.9 °C 0.3 °C 1026 hPa NW 4.8 km/h 19.3 km/h 96 % 0 mm
22:45 0.8 °C 0.2 °C 1026.3 hPa WNW 6.4 km/h 16.1 km/h 96 % 0 mm
22:50 0.8 °C 0.2 °C 1026.3 hPa NNW 8 km/h 16.1 km/h 96 % 0 mm
22:55 0.7 °C 0.1 °C 1026.3 hPa NW 16.1 km/h 17.7 km/h 96 % 0 mm
23:00 0.7 °C 0.1 °C 1026.6 hPa WNW 3.2 km/h 17.7 km/h 96 % 0 mm
23:05 0.6 °C 0 °C 1027 hPa NNW 4.8 km/h 20.9 km/h 96 % 0 mm
23:10 0.6 °C 0 °C 1027 hPa NW 3.2 km/h 20.9 km/h 96 % 0 mm
23:15 0.6 °C 0 °C 1026.6 hPa North 9.7 km/h 20.9 km/h 96 % 0 mm
23:30 0.2 °C -0.4 °C 1026.6 hPa NNW 14.5 km/h 25.7 km/h 96 % 0 mm
23:35 0.2 °C -0.4 °C 1026 hPa NW 19.3 km/h 25.7 km/h 96 % 0 mm
23:40 0.1 °C -0.5 °C 1026.6 hPa NNW 9.7 km/h 20.9 km/h 96 % 0 mm
23:50 0 °C -0.4 °C 1026.6 hPa NNW 4.8 km/h 20.9 km/h 97 % 0 mm
23:55 0.1 °C -0.3 °C 1027 hPa NW 6.4 km/h 20.9 km/h 97 % 0 mm
Spring, Texas: Villages of Bridgestone
Compliments of Weather Underground - 2.5 mb

Script developed by  Jim McMurry - jmcmurry@mwt.net Adapted for the template by  Wim van der Kuil - Leuven-Template.eu

You find our weather info also at:

UK Metoffice

WeatherCloud

Weather Underground

Mid-South Weather Network

AWEKAS

Citizen Weather Observer Program (CWOP)

HAMweather, WeatherForYou, PWS Weather

Equipment we use:

Weather-station
Davis Vantage Vue

Weather-program
Meteohub

Weather-server
Debian 7.9 x86 (Guest)

Provider
DreamHost

Davis Vantage Vue

Meteohub

Debian 7.9 x86 (Guest)

DreamHost